Location: Beemte
(52.2555°N, 5.9895°E)
Time: 19:47:44
(UTC+00:00)

Cosmos 2279 Rocket - Pass Details

Date: 15 May 2026
Orbit: 963 x 978 km, 82.9° (Epoch: 6 June)

Event Time Altitude Azimuth Distance (km) Brightness Sun altitude
Exits shadow 22:16:39 26° 163° (SSE) 1,822 4.8 -16.8°
Maximum altitude 22:20:12 60° 93° (E) 1,113 4.2 -17.0°
Drops below altitude 10° 22:26:21 10° 16° (NNE) 2,740 7.2 -17.3°
Sets 22:28:54 0° 13° (NNE) 3,691 8.1 -17.4°
